AO-85 (40967 NORAD) Tracking and Keplerian Element Data
This shows tracking and keplerian element data for the satellite.
Feedback or suggestion? Click here.
Element | Value |
Catalog | 40967 |
Name | AO-85 |
Epoch Orbit | 14608 |
Epoch Day | 64.49748109 |
Epoch Year | 2020 |
RAAN | 89.4756 |
Inclination | 64.7743 |
Eccentricity | 0.0172126 |
Argument of Perigee | 113.77 |
Mean Anonmoly | 248.1562 |
Mean Motion | 14.76077859 |
Decay Rate | -2.6E-07 |
L1 | 1 40967U 15058D 20064.49748109 -.00000026 00000-0 16417-4 0 9698 |
L2 | 2 40967 64.7743 89.4756 0172126 113.7700 248.1562 14.76077859146087 |
Live tracking and technical data element details for AO-85 (NORAD 40967). AO-85 can be tracked NOW for your location showing map with azimuth and elevation plus other details from your city location.
Track the satellite on the map from your city or location and see movement details for azimuth, elevation, latitude, longitude, range, height, and movement on the map or in text.
IsCatalogInMostPopularTable: catalog: 40967, numindb: 553
Update: records affected: 1
GetName: 40967 AO-85
Hit Count: updated at: Sat, 23 Jan 2021 04:14:49 GMT